EW4075 Weather Reports


time (UTC)temp
C
wind
direction
speed
KPH
gust
KPH
rain 1hr
cm
rain 24hr
cm
rain mn
cm
humidity
%
barometer
mb
20260510174550 23 303 4.8 9.7 0.00 0.61 0.00 56 1014.3
20260510173044 23 256 3.2 9.7 0.00 0.61 0.00 56 1014.4
20260510171547 22 266 1.6 6.4 0.00 0.61 0.00 58 1014.3
20260510170038 22 321 4.8 11.3 0.00 0.61 0.00 59 1014.2
20260510164533 22 281 1.6 4.8 0.00 0.71 0.00 63 1014.1
20260510163030 21 272 0.0 4.8 0.00 0.71 0.00 66 1014.1
20260510161525 21 66 0.0 6.4 0.00 0.71 0.00 70 1014.1
20260510160021 20 261 1.6 11.3 0.00 0.71 0.00 75 1014.1
20260510154517 19 290 0.0 9.7 0.00 0.76 0.00 78 1014.1
20260510153013 18 294 0.0 4.8 0.00 0.76 0.00 81 1014.3
20260510151508 17 267 0.0 3.2 0.00 0.76 0.00 84 1014.3
20260510150004 16 267 0.0 6.4 0.00 0.76 0.00 86 1014.3
20260510144702 16 115 0.0 3.2 0.00 0.76 0.00 90 1014.5
20260510143056 15 260 1.6 4.8 0.00 0.76 0.00 91 1014.5
20260510141553 15 260 0.0 3.2 0.00 0.76 0.00 93 1014.7
20260510140048 13 260 0.0 1.6 0.00 0.76 0.00 96 1014.6
20260510134545 13 260 0.0 3.2 0.00 0.76 0.00 96 1014.5
20260510133043 13 259 0.0 4.8 0.00 0.76 0.00 97 1014.5
20260510131540 12 57 0.0 1.6 0.00 0.76 0.00 97 1014.7
20260510130039 12 57 0.0 4.8 0.00 0.76 0.00 97 1014.6
20260510124540 12 57 0.0 1.6 0.00 0.76 0.00 97 1014.6
20260510123036 12 57 0.0 1.6 0.00 0.76 0.00 97 1014.6
20260510121533 11 57 0.0 1.6 0.00 0.76 0.00 97 1014.2
20260510120029 11 57 0.0 1.6 0.00 0.76 0.00 97 1014.1
20260510114526 11 57 0.0 1.6 0.00 0.76 0.00 97 1013.7
20260510113032 11 57 0.0 3.2 0.00 0.76 0.00 97 1013.6
20260510111524 11 57 0.0 1.6 0.00 0.76 0.00 97 1013.5
20260510110031 11 57 0.0 1.6 0.00 0.76 0.00 97 1013.5
20260510104519 10 57 0.0 1.6 0.00 0.76 0.00 97 1013.5
20260510103020 10 57 0.0 0.0 0.00 0.76 0.00 97 1013.4
20260510101518 10 57 0.0 1.6 0.00 0.76 0.00 97 1013.1
20260510100011 10 57 0.0 1.6 0.00 0.76 0.00 97 1012.9
20260510094507 10 171 0.0 1.6 0.00 0.76 0.00 97 1013.0
20260510093006 10 171 0.0 1.6 0.00 0.76 0.00 97 1012.7
20260510091505 10 171 0.0 3.2 0.00 0.76 0.00 97 1012.8
20260510090004 10 171 0.0 3.2 0.00 0.76 0.00 97 1012.7
20260510084505 10 196 0.0 1.6 0.00 0.76 0.00 97 1012.9
20260510083002 10 196 0.0 3.2 0.00 0.76 0.00 97 1013.0
20260510081502 10 196 0.0 3.2 0.00 0.76 0.00 97 1013.1
20260510074603 10 224 0.0 0.0 0.00 0.76 0.00 96 1012.2
20260510073056 10 224 0.0 1.6 0.00 0.76 0.00 96 1012.2
20260510071555 10 224 0.0 0.0 0.00 0.76 0.00 96 1012.2
20260510070055 10 225 0.0 4.8 0.00 0.76 0.00 96 1012.3
20260510064604 10 306 0.0 3.2 0.00 0.76 0.00 96 1012.3
20260510063051 10 340 0.0 3.2 0.00 0.76 0.00 96 1012.0
20260510061550 10 83 0.0 0.0 0.00 0.76 0.00 96 1011.7
20260510060046 10 83 0.0 0.0 0.00 0.76 0.00 96 1011.8
20260510054545 10 84 0.0 0.0 0.00 0.76 0.00 96 1011.9
20260510053041 10 83 0.0 0.0 0.00 0.76 0.00 96 1012.1
20260510051537 10 83 0.0 0.0 0.00 0.76 0.00 96 1012.1
20260510050036 10 84 0.0 0.0 0.00 0.76 0.00 96 1012.1
20260510044540 10 83 0.0 0.0 0.00 0.76 0.00 96 1012.2
20260510043031 10 84 0.0 0.0 0.00 0.76 0.00 95 1012.4
20260510041531 10 84 0.0 0.0 0.00 0.76 0.00 95 1012.3
20260510040029 10 83 0.0 0.0 0.00 0.76 0.00 95 1012.4
20260510034527 10 83 0.0 0.0 0.00 0.76 0.76 95 1012.4
20260510033026 10 83 0.0 0.0 0.00 0.76 0.76 95 1012.2
20260510031526 10 83 0.0 0.0 0.00 0.76 0.76 94 1012.2
20260510030033 11 83 0.0 0.0 0.00 0.76 0.76 94 1011.9
20260510024520 11 83 0.0 0.0 0.00 0.76 0.76 94 1011.9
20260510023018 11 83 0.0 0.0 0.00 0.76 0.76 94 1012.0
20260510021521 11 83 0.0 0.0 0.00 0.76 0.76 94 1011.8
20260510020015 11 83 0.0 0.0 0.00 0.76 0.76 94 1011.8
20260510014513 11 83 0.0 0.0 0.00 0.76 0.76 94 1011.6
20260510013014 12 83 0.0 0.0 0.00 0.76 0.76 94 1011.6
20260510011511 12 84 0.0 0.0 0.00 0.76 0.76 94 1011.5
20260510010009 12 83 0.0 0.0 0.00 0.76 0.76 93 1011.4
20260510004508 12 83 0.0 0.0 0.00 0.76 0.76 93 1011.2
20260510003019 12 83 0.0 1.6 0.00 0.76 0.76 93 1011.1
20260510001507 12 83 0.0 1.6 0.00 0.76 0.76 93 1011.1
20260510000007 13 83 0.0 4.8 0.00 0.76 0.76 93 1011.0
20260509234512 13 83 0.0 3.2 0.00 0.76 0.76 93 1011.0
20260509233004 13 83 0.0 3.2 0.00 0.76 0.76 92 1011.1
20260509231505 13 80 0.0 3.2 0.00 0.76 0.76 92 1011.1
20260509230004 13 80 0.0 3.2 0.00 0.76 0.76 92 1011.1
20260509224503 13 88 0.0 4.8 0.00 0.76 0.76 93 1011.0
20260509223002 13 104 0.0 4.8 0.00 0.76 0.76 92 1011.0
20260509221502 13 80 0.0 3.2 0.00 0.76 0.76 93 1011.0
20260509220001 13 98 0.0 3.2 0.00 0.76 0.76 93 1010.9
20260509214603 13 98 0.0 3.2 0.00 0.76 0.76 93 1010.9
20260509213059 13 76 0.0 4.8 0.00 0.76 0.76 93 1011.0
20260509211558 13 323 0.0 1.6 0.00 0.76 0.76 93 1011.1
20260509210058 13 323 0.0 3.2 0.03 0.76 0.76 94 1011.2
20260509204604 13 80 0.0 3.2 0.15 0.76 0.76 94 1011.3
20260509203138 13 293 0.0 4.8 0.18 0.76 0.76 95 1011.3
20260509201612 13 109 0.0 3.2 0.18 0.76 0.76 94 1011.1
20260509200100 13 159 0.0 1.6 0.18 0.71 0.71 93 1011.1
20260509194552 13 159 0.0 3.2 0.15 0.61 0.61 93 1011.4
20260509193059 13 240 0.0 1.6 0.13 0.58 0.58 93 1011.7
20260509191557 13 240 0.0 4.8 0.15 0.58 0.58 92 1012.0
20260509190046 13 257 0.0 3.2 0.15 0.56 0.56 91 1012.3
20260509184545 13 302 1.6 3.2 0.10 0.46 0.46 92 1012.5
20260509183048 13 271 0.0 3.2 0.15 0.46 0.46 92 1012.5
20260509181543 13 270 0.0 3.2 0.20 0.43 0.43 92 1012.4
20260509180042 13 303 0.0 1.6 0.25 0.41 0.41 91 1012.8